Flag for Australia Weather past 2 weeks in Alice Springs, Northern Territory, Australia

Now
45 °F

Clear.


Feels Like: 41 °F
Forecast: 39 / 79 °F
Wind: 7 mph from North

Location: Alice Springs Aerodrome

Current Time: Jul 31, 2015 at 6:01:00 AM

Latest Report: Jul 31, 2015 at 5:30 AM


Visibility: N/A

Pressure: 30.15 "Hg (28.09 "Hg at 581m altitude)

Humidity: 21%

Dew point: 7 °F

Location of Alice SpringsLocation

Historic Weather in Alice Springs — Graph

°F

Alice Springs temperature yesterday

Maximum temperature yesterday: 77 °F (at 3:00 PM)
Minimum temperature yesterday: 32 °F (at 6:00 AM)
Average temperature yesterday: 53 °F

Past Weeks' High & Low Weather Summary

 TemperatureHumidityPressure
High81 °F (Jul 23, 1:00 PM)93% (Jul 21, 6:00 AM)30.54 "Hg (Jul 21, 6:00 AM)
Low23 °F (Jul 20, 7:00 AM)1% (Jul 21, 3:00 PM)30.01 "Hg (Jul 23, 3:30 PM)
Average52 °F39%30.26 "Hg
* Reported Jul 16 4:30 AM — Jul 31 5:00 AM, Alice Springs, Weather by CustomWeather, © 2015

Note: Actual official high and low records may vary slightly from our data, if they occured in-between our weather recording intervals... More about our weather records

Advertising

Alice Springs weather history for previous 24 hours

 ConditionsComfort  
Time TempWeatherWind HumidityBarometerVisibility
5:00 AM
Fri, Jul 31
45 °FClear.6 mph21%30.15 "HgN/A
4:30 AM45 °FClear.7 mph21%30.15 "HgN/A
4:00 AM45 °FClear.6 mph23%30.15 "HgN/A
3:30 AM45 °FClear.7 mph21%30.15 "HgN/A
3:00 AM45 °FClear.6 mph21%30.18 "HgN/A
2:30 AM45 °FClear.5 mph23%30.18 "HgN/A
2:00 AM46 °FClear.6 mph18%30.18 "HgN/A
1:30 AM46 °FClear.6 mph21%30.21 "HgN/A
1:00 AM46 °FClear.5 mph18%30.21 "HgN/A
12:30 AM46 °FClear.3 mph27%30.21 "HgN/A
12:00 AM50 °FClear.6 mph14%30.21 "HgN/A
11:30 PM
Thu, Jul 30
50 °FClear.6 mph14%30.21 "HgN/A
11:00 PM52 °FClear.7 mph13%30.24 "HgN/A
10:30 PM50 °FClear.6 mph14%30.24 "HgN/A
10:00 PM52 °FClear.3 mph13%30.21 "HgN/A
9:30 PM52 °FClear.No wind17%30.21 "HgN/A
9:00 PM54 °FClear.5 mph21%30.21 "HgN/A
8:30 PM55 °FClear.No wind16%30.21 "HgN/A
8:00 PM55 °FClear.No wind24%30.21 "HgN/A
7:30 PM61 °FClear.3 mph19%30.18 "HgN/A
7:00 PM66 °FClear.5 mph12%30.18 "HgN/A
6:30 PM68 °FClear.6 mph10%30.18 "HgN/A
6:00 PM70 °FClear.6 mph8%30.18 "HgN/A
5:30 PM73 °FSunny.5 mph4%30.15 "Hg10 mi
5:00 PM75 °FSunny.5 mph5%30.15 "Hg10 mi
4:30 PM75 °FPassing clouds.7 mph5%30.18 "HgN/A
4:00 PM75 °FPassing clouds.7 mph4%30.18 "HgN/A
3:30 PM75 °FPassing clouds.7 mph1%30.18 "HgN/A
3:00 PM77 °FPassing clouds.7 mph3%30.18 "HgN/A
2:30 PM75 °FPassing clouds.6 mph3%30.18 "HgN/A
2:00 PM75 °FPassing clouds.6 mph3%30.21 "HgN/A
1:00 PM73 °FSunny.2 mph6%30.24 "Hg10 mi
12:30 PM70 °FSunny.2 mph8%30.24 "Hg10 mi
12:00 PM70 °FSunny.2 mph12%30.27 "Hg10 mi
11:30 AM68 °FSunny.3 mph14%30.30 "Hg10 mi
11:00 AM66 °FSunny.1 mph14%30.30 "Hg10 mi
10:30 AM63 °FSunny.1 mph16%30.30 "Hg10 mi
10:00 AM59 °FSunny.No wind18%30.30 "Hg10 mi
9:30 AM54 °FSunny.1 mph22%30.30 "Hg10 mi
9:00 AM50 °FSunny.No wind25%30.30 "Hg10 mi
8:30 AM45 °FSunny.No wind29%30.30 "Hg10 mi
8:00 AM37 °FSunny.3 mph38%30.27 "Hg10 mi
7:30 AM36 °FSunny.6 mph38%30.27 "Hg10 mi
7:00 AM34 °FSunny.5 mph41%30.24 "Hg10 mi
6:30 AM32 °FClear.5 mph44%30.24 "Hg10 mi
6:00 AM32 °FClear.6 mph87%30.24 "Hg10 mi
Weather by CustomWeather, © 2015

See weather overviewHow to use our weather pages